AMICALSAT (46287 NORAD) Tracking and Keplerian Element Data

This shows tracking and keplerian element data for the satellite.

Feedback or suggestion? Click here.




ElementValue
Catalog46287
NameAMICALSAT
Epoch Orbit1353
Epoch Day336.93678791
Epoch Year2020
RAAN48.3451
Inclination97.5105
Eccentricity0.000408
Argument of Perigee69.0229
Mean Anonmoly291.1437
Mean Motion15.10085647
Decay Rate1.89E-05
L11 46287U 20061R 20336.93678791 .00001890 00000-0 11995-3 0 9996
L22 46287 97.5105 48.3451 0004080 69.0229 291.1437 15.10085647 13537

Live tracking and technical data element details for AMICALSAT (NORAD 46287). AMICALSAT can be tracked NOW for your location showing map with azimuth and elevation plus other details from your city location.

Track the satellite on the map from your city or location and see movement details for azimuth, elevation, latitude, longitude, range, height, and movement on the map or in text.







IsCatalogInMostPopularTable: catalog: 46287, numindb: 17
Update: records affected: 1



GetName: 46287 AMICALSAT

Hit Count: updated at: Wed, 02 Dec 2020 18:04:48 GMT